Skip Page Navigation
NASA JPL Caltech
NASA Logo - Jet Propulsion Laboratory + View the NASA Portal
+ Center for Near-Earth Object Studies
JPL Home Earth Solar System Stars & Galaxies Technology
JPL Solar System Dynamics
BODIES ORBITS EPHEMERIDES TOOLS PHYSICAL DATA DISCOVERY FAQ SITE MAP
JPL Small-Body Database Browser
Search: [ help ]  
392803 (2012 TS206)
Classification: Main-belt Asteroid          SPK-ID: 2392803
Ephemeris | Orbit Diagram | Orbital Elements | Mission Design | Physical Parameters | Discovery Circumstances | Close-Approach Data ]

[ show orbit diagram ]
Orbital Elements at Epoch 2459000.5 (2020-May-31.0) TDB
Reference: JPL 12 (heliocentric ecliptic J2000)
 Element Value Uncertainty (1-sigma)   Units 
e .1189487737063241 8.636e-08  
a 2.562994725996065 7.2553e-08 au
q 2.258129646323057 2.1178e-07 au
i 7.739574260429905 1.7047e-05 deg
node 257.3700480181899 0.00014106 deg
peri 209.2964474722467 0.00032482 deg
M 246.012065998848 0.00030471 deg
tp 2459475.043880319448
(2021-Sep-17.54388032)
0.0012837 TDB
period 1498.718249540999
4.10
6.3638e-05
1.742e-07
d
yr
n .2402052554642972 1.02e-08 deg/d
Q 2.867859805669073 8.1183e-08 au
  Orbit Determination Parameters
   # obs. used (total)      80  
   data-arc span      6303 days (17.26 yr)  
   first obs. used      2000-11-24  
   last obs. used      2018-02-26  
   planetary ephem.      DE431  
   SB-pert. ephem.      SB431-N16  
   condition code      0  
   norm. resid. RMS      .62543  
   source      ORB  
   producer      Otto Matic  
   solution date      2018-Oct-04 11:45:28  

Additional Information
 Earth MOID = 1.27843 au 
 Jupiter MOID = 2.28871 au 
 T_jup = 3.411 
[ show covariance matrix ]

Ephemeris | Orbit Diagram | Orbital Elements | Mission Design | Physical Parameters | Discovery Circumstances | Close-Approach Data ]

Physical Parameter Table
Parameter Symbol Value Units Sigma Reference Notes
absolute magnitude H 17.2   n/a MPO437608  
diameter diameter 2.821 km 0.419 urn:nasa:pds:neowise_diameters_albedos::2.0[mainbelt] (http://adsabs.harvard.edu/abs/2011ApJ...741...68M)  
geometric albedo albedo 0.056   0.032 urn:nasa:pds:neowise_diameters_albedos::2.0[mainbelt] (http://adsabs.harvard.edu/abs/2011ApJ...741...68M)  

392803 (2012 TS206)          Discovered 2008-Oct-26 by Spacewatch at Kitt Peak
Reference: Last Updated: 2014-04-17

[ show close-approach data ]
Alternate Designations
 2012 TS206 = 2008 UE236 = 2010 AF104 = 2010 MR110 
Ephemeris | Orbit Diagram | Orbital Elements | Mission Design | Physical Parameters | Discovery Circumstances | Close-Approach Data ]
ABOUT SSD CREDITS/AWARDS PRIVACY/COPYRIGHT GLOSSARY LINKS
FirstGov 2020-Jul-07 12:50 UT
(server date/time)  
NASA Home Page
Site Manager:   Ryan S. Park
Webmaster  Alan B. Chamberlin